Time,TemperatureF,DewpointF,PressureIn,WindDirection,WindDirectionDegrees,WindSpeedMPH,WindSpeedGustMPH,Humidity,HourlyPrecipIn,Conditions,Clouds,dailyrainin,SoftwareType,DateUTC
2013-01-16 00:02:00,10.0,-4.0,-100.00,South,171,2.0,11.0,52,0.00,,,0.01,,2013-01-16 07:02:00,
2013-01-16 00:12:00,10.0,-4.0,-100.00,South,171,2.0,11.0,52,0.00,,,0.01,,2013-01-16 07:12:00,
2013-01-16 00:22:00,10.0,-4.0,-100.00,South,171,2.0,11.0,52,0.00,,,0.01,,2013-01-16 07:22:00,
2013-01-16 00:33:00,10.0,-4.0,-100.00,South,171,2.0,11.0,52,0.00,,,0.01,,2013-01-16 07:33:00,
2013-01-16 00:40:00,10.0,-3.0,-100.00,NW,315,5.0,9.0,54,0.00,,,0.01,,2013-01-16 07:40:00,
2013-01-16 01:02:00,10.0,-3.0,-100.00,NW,315,5.0,9.0,54,0.00,,,0.01,,2013-01-16 08:02:00,
2013-01-16 01:12:00,10.0,-3.0,-100.00,NW,315,5.0,9.0,54,0.00,,,0.01,,2013-01-16 08:12:00,
2013-01-16 01:22:00,10.0,-3.0,-100.00,NW,315,5.0,9.0,54,0.00,,,0.01,,2013-01-16 08:22:00,
2013-01-16 01:32:00,10.0,-3.0,-100.00,NW,315,5.0,9.0,54,0.00,,,0.01,,2013-01-16 08:32:00,
2013-01-16 01:40:00,8.0,-4.0,-100.00,NNW,339,3.0,10.0,57,0.00,,,0.01,,2013-01-16 08:40:00,
2013-01-16 02:02:00,8.0,-4.0,-100.00,NNW,339,3.0,10.0,57,0.00,,,0.01,,2013-01-16 09:02:00,
2013-01-16 02:12:00,8.0,-4.0,-100.00,NNW,339,3.0,10.0,57,0.00,,,0.01,,2013-01-16 09:12:00,
2013-01-16 02:22:00,8.0,-4.0,-100.00,NNW,339,3.0,10.0,57,0.00,,,0.01,,2013-01-16 09:22:00,
2013-01-16 02:32:00,8.0,-4.0,-100.00,NNW,339,3.0,10.0,57,0.00,,,0.01,,2013-01-16 09:32:00,
2013-01-16 02:40:00,7.0,-4.0,-100.00,NNW,331,4.0,9.0,59,0.00,,,0.01,,2013-01-16 09:40:00,
2013-01-16 03:02:00,7.0,-4.0,-100.00,NNW,331,4.0,9.0,59,0.00,,,0.01,,2013-01-16 10:02:00,
2013-01-16 03:12:00,7.0,-4.0,-100.00,NNW,331,4.0,9.0,59,0.00,,,0.01,,2013-01-16 10:12:00,
2013-01-16 03:22:00,7.0,-4.0,-100.00,NNW,331,4.0,9.0,59,0.00,,,0.01,,2013-01-16 10:22:00,
2013-01-16 03:32:00,7.0,-4.0,-100.00,NNW,331,4.0,9.0,59,0.00,,,0.01,,2013-01-16 10:32:00,
2013-01-16 03:40:00,10.0,-3.0,-100.00,NNW,329,5.0,11.0,55,0.00,,,0.01,,2013-01-16 10:40:00,
2013-01-16 04:02:00,10.0,-3.0,-100.00,NNW,329,5.0,11.0,55,0.00,,,0.01,,2013-01-16 11:02:00,
2013-01-16 04:12:00,10.0,-3.0,-100.00,NNW,329,5.0,11.0,55,0.00,,,0.01,,2013-01-16 11:12:00,
2013-01-16 04:22:00,10.0,-3.0,-100.00,NNW,329,5.0,11.0,55,0.00,,,0.01,,2013-01-16 11:22:00,
2013-01-16 04:32:00,10.0,-3.0,-100.00,NNW,329,5.0,11.0,55,0.00,,,0.01,,2013-01-16 11:32:00,
2013-01-16 04:40:00,10.0,-3.0,-100.00,NNW,348,9.0,18.0,56,0.00,,,0.01,,2013-01-16 11:40:00,
2013-01-16 05:03:00,10.0,-3.0,-100.00,NNW,348,9.0,18.0,56,0.00,,,0.01,,2013-01-16 12:03:00,
2013-01-16 05:13:00,10.0,-3.0,-100.00,NNW,348,9.0,18.0,56,0.00,,,0.01,,2013-01-16 12:13:00,
2013-01-16 05:22:00,10.0,-3.0,-100.00,NNW,348,9.0,18.0,56,0.00,,,0.01,,2013-01-16 12:22:00,
2013-01-16 05:33:00,10.0,-3.0,-100.00,NNW,348,9.0,18.0,56,0.00,,,0.01,,2013-01-16 12:33:00,
2013-01-16 05:40:00,11.0,-2.0,-100.00,North,353,8.0,15.0,54,0.00,,,0.01,,2013-01-16 12:40:00,
2013-01-16 06:03:00,11.0,-2.0,-100.00,North,353,8.0,15.0,54,0.00,,,0.01,,2013-01-16 13:03:00,
2013-01-16 06:12:00,11.0,-2.0,-100.00,North,353,8.0,15.0,54,0.00,,,0.01,,2013-01-16 13:12:00,
2013-01-16 06:22:00,11.0,-2.0,-100.00,North,353,8.0,15.0,54,0.00,,,0.01,,2013-01-16 13:22:00,
2013-01-16 06:33:00,11.0,-2.0,-100.00,North,353,8.0,15.0,54,0.00,,,0.01,,2013-01-16 13:33:00,
2013-01-16 06:40:00,8.0,-3.0,-100.00,West,280,2.0,13.0,61,0.00,,,0.01,,2013-01-16 13:40:00,
2013-01-16 07:03:00,8.0,-3.0,-100.00,West,280,2.0,13.0,61,0.00,,,0.01,,2013-01-16 14:03:00,
2013-01-16 07:12:00,8.0,-3.0,-100.00,West,280,2.0,13.0,61,0.00,,,0.01,,2013-01-16 14:12:00,
2013-01-16 07:23:00,8.0,-3.0,-100.00,West,280,2.0,13.0,61,0.00,,,0.01,,2013-01-16 14:23:00,
2013-01-16 07:33:00,8.0,-3.0,-100.00,West,280,2.0,13.0,61,0.00,,,0.01,,2013-01-16 14:33:00,
2013-01-16 07:40:00,12.0,-1.0,-100.00,NNW,346,4.0,11.0,54,0.00,,,0.01,,2013-01-16 14:40:00,
2013-01-16 08:03:00,12.0,-1.0,-100.00,NNW,346,4.0,11.0,54,0.00,,,0.01,,2013-01-16 15:03:00,
2013-01-16 08:12:00,12.0,-1.0,-100.00,NNW,346,4.0,11.0,54,0.00,,,0.01,,2013-01-16 15:12:00,
2013-01-16 08:23:00,12.0,-1.0,-100.00,NNW,346,4.0,11.0,54,0.00,,,0.01,,2013-01-16 15:23:00,
2013-01-16 08:33:00,12.0,-1.0,-100.00,NNW,346,4.0,11.0,54,0.00,,,0.01,,2013-01-16 15:33:00,
2013-01-16 08:40:00,16.0,-1.0,-100.00,North,354,9.0,15.0,46,0.00,,,0.01,,2013-01-16 15:40:00,
2013-01-16 09:12:00,16.0,-1.0,-100.00,North,354,9.0,15.0,46,0.00,,,0.01,,2013-01-16 16:12:00,
2013-01-16 09:22:00,16.0,-1.0,-100.00,North,354,9.0,15.0,46,0.00,,,0.01,,2013-01-16 16:22:00,
2013-01-16 09:33:00,16.0,-1.0,-100.00,North,354,9.0,15.0,46,0.00,,,0.01,,2013-01-16 16:33:00,
2013-01-16 09:40:00,21.0,2.0,-100.00,NNW,343,6.0,11.0,42,0.00,,,0.01,,2013-01-16 16:40:00,
2013-01-16 10:03:00,21.0,2.0,-100.00,NNW,343,6.0,11.0,42,0.00,,,0.01,,2013-01-16 17:03:00,
2013-01-16 10:12:00,21.0,2.0,-100.00,NNW,343,6.0,11.0,42,0.00,,,0.01,,2013-01-16 17:12:00,
2013-01-16 10:23:00,21.0,2.0,-100.00,NNW,343,6.0,11.0,42,0.00,,,0.01,,2013-01-16 17:23:00,
2013-01-16 10:33:00,21.0,2.0,-100.00,NNW,343,6.0,11.0,42,0.00,,,0.01,,2013-01-16 17:33:00,
2013-01-16 10:40:00,24.0,5.0,-100.00,NNW,345,9.0,16.0,43,0.00,,,0.01,,2013-01-16 17:40:00,
2013-01-16 11:03:00,24.0,5.0,-100.00,NNW,345,9.0,16.0,43,0.00,,,0.01,,2013-01-16 18:03:00,
2013-01-16 11:13:00,24.0,5.0,-100.00,NNW,345,9.0,16.0,43,0.00,,,0.01,,2013-01-16 18:13:00,
2013-01-16 11:23:00,24.0,5.0,-100.00,NNW,345,9.0,16.0,43,0.00,,,0.01,,2013-01-16 18:23:00,
2013-01-16 11:33:00,24.0,5.0,-100.00,NNW,345,9.0,16.0,43,0.00,,,0.01,,2013-01-16 18:33:00,
2013-01-16 11:40:00,32.0,8.0,-100.00,North,7,5.0,13.0,36,0.00,,,0.00,,2013-01-16 18:40:00,
2013-01-16 12:03:00,32.0,8.0,-100.00,North,7,5.0,13.0,36,0.00,,,0.00,,2013-01-16 19:03:00,
2013-01-16 12:12:00,32.0,8.0,-100.00,North,7,5.0,13.0,36,0.00,,,0.00,,2013-01-16 19:12:00,
2013-01-16 12:23:00,32.0,8.0,-100.00,North,7,5.0,13.0,36,0.00,,,0.00,,2013-01-16 19:23:00,
2013-01-16 12:33:00,32.0,8.0,-100.00,North,7,5.0,13.0,36,0.00,,,0.00,,2013-01-16 19:33:00,
2013-01-16 12:40:00,37.0,10.0,-100.00,ESE,121,4.0,11.0,32,0.00,,,0.00,,2013-01-16 19:40:00,
2013-01-16 13:03:00,37.0,10.0,-100.00,ESE,121,4.0,11.0,32,0.00,,,0.00,,2013-01-16 20:03:00,
2013-01-16 13:12:00,37.0,10.0,-100.00,ESE,121,4.0,11.0,32,0.00,,,0.00,,2013-01-16 20:12:00,
2013-01-16 13:23:00,37.0,10.0,-100.00,ESE,121,4.0,11.0,32,0.00,,,0.00,,2013-01-16 20:23:00,
2013-01-16 13:33:00,37.0,10.0,-100.00,ESE,121,4.0,11.0,32,0.00,,,0.00,,2013-01-16 20:33:00,
2013-01-16 13:40:00,42.0,12.0,-100.00,East,93,2.0,7.0,29,0.00,,,0.00,,2013-01-16 20:40:00,
2013-01-16 14:03:00,42.0,12.0,-100.00,East,93,2.0,7.0,29,0.00,,,0.00,,2013-01-16 21:03:00,
2013-01-16 14:12:00,42.0,12.0,-100.00,East,93,2.0,7.0,29,0.00,,,0.00,,2013-01-16 21:12:00,
2013-01-16 14:22:00,42.0,12.0,-100.00,East,93,2.0,7.0,29,0.00,,,0.00,,2013-01-16 21:22:00,
2013-01-16 14:33:00,42.0,12.0,-100.00,East,93,2.0,7.0,29,0.00,,,0.00,,2013-01-16 21:33:00,
2013-01-16 14:40:00,42.0,11.0,-100.00,ESE,108,2.0,6.0,28,0.00,,,0.00,,2013-01-16 21:40:00,
2013-01-16 15:03:00,42.0,11.0,-100.00,ESE,108,2.0,6.0,28,0.00,,,0.00,,2013-01-16 22:03:00,
2013-01-16 15:12:00,42.0,11.0,-100.00,ESE,108,2.0,6.0,28,0.00,,,0.00,,2013-01-16 22:12:00,
2013-01-16 15:23:00,42.0,11.0,-100.00,ESE,108,2.0,6.0,28,0.00,,,0.00,,2013-01-16 22:23:00,
2013-01-16 15:33:00,42.0,11.0,-100.00,ESE,108,2.0,6.0,28,0.00,,,0.00,,2013-01-16 22:33:00,
2013-01-16 15:40:00,40.0,10.0,-100.00,SE,145,3.0,6.0,29,0.00,,,0.00,,2013-01-16 22:40:00,
2013-01-16 16:03:00,40.0,10.0,-100.00,SE,145,3.0,6.0,29,0.00,,,0.00,,2013-01-16 23:03:00,
2013-01-16 16:12:00,40.0,10.0,-100.00,SE,145,3.0,6.0,29,0.00,,,0.00,,2013-01-16 23:12:00,
2013-01-16 16:23:00,40.0,10.0,-100.00,SE,145,3.0,6.0,29,0.00,,,0.00,,2013-01-16 23:23:00,
2013-01-16 16:32:00,40.0,10.0,-100.00,SE,145,3.0,6.0,29,0.00,,,0.00,,2013-01-16 23:32:00,
2013-01-16 16:40:00,34.0,9.0,-100.00,NNW,344,3.0,6.0,35,0.00,,,0.00,,2013-01-16 23:40:00,
2013-01-16 17:02:00,34.0,9.0,-100.00,NNW,344,3.0,6.0,35,0.00,,,0.00,,2013-01-17 00:02:00,
2013-01-16 17:12:00,34.0,9.0,-100.00,NNW,344,3.0,6.0,35,0.00,,,0.00,,2013-01-17 00:12:00,
2013-01-16 17:22:00,34.0,9.0,-100.00,NNW,344,3.0,6.0,35,0.00,,,0.00,,2013-01-17 00:22:00,
2013-01-16 17:32:00,34.0,9.0,-100.00,NNW,344,3.0,6.0,35,0.00,,,0.00,,2013-01-17 00:32:00,
2013-01-16 17:40:00,27.0,9.0,-100.00,WNW,289,2.0,7.0,46,0.00,,,0.00,,2013-01-17 00:40:00,
2013-01-16 18:02:00,27.0,9.0,-100.00,WNW,289,2.0,7.0,46,0.00,,,0.00,,2013-01-17 01:02:00,
2013-01-16 18:12:00,27.0,9.0,-100.00,WNW,289,2.0,7.0,46,0.00,,,0.00,,2013-01-17 01:12:00,
2013-01-16 18:22:00,27.0,9.0,-100.00,WNW,289,2.0,7.0,46,0.00,,,0.00,,2013-01-17 01:22:00,
2013-01-16 18:33:00,27.0,9.0,-100.00,WNW,289,2.0,7.0,46,0.00,,,0.00,,2013-01-17 01:33:00,
2013-01-16 18:40:00,27.0,9.0,-100.00,NNE,12,2.0,3.0,47,0.00,,,0.00,,2013-01-17 01:40:00,
2013-01-16 19:02:00,27.0,9.0,-100.00,NNE,12,2.0,3.0,47,0.00,,,0.00,,2013-01-17 02:02:00,
2013-01-16 19:12:00,27.0,9.0,-100.00,NNE,12,2.0,3.0,47,0.00,,,0.00,,2013-01-17 02:12:00,
2013-01-16 19:22:00,27.0,9.0,-100.00,NNE,12,2.0,3.0,47,0.00,,,0.00,,2013-01-17 02:22:00,
2013-01-16 19:32:00,27.0,9.0,-100.00,NNE,12,2.0,3.0,47,0.00,,,0.00,,2013-01-17 02:32:00,
2013-01-16 19:40:00,22.0,8.0,-100.00,NW,312,2.0,3.0,53,0.00,,,0.00,,2013-01-17 02:40:00,
2013-01-16 20:03:00,22.0,8.0,-100.00,NW,312,2.0,3.0,53,0.00,,,0.00,,2013-01-17 03:03:00,
2013-01-16 20:12:00,22.0,8.0,-100.00,NW,312,2.0,3.0,53,0.00,,,0.00,,2013-01-17 03:12:00,
2013-01-16 20:22:00,22.0,8.0,-100.00,NW,312,2.0,3.0,53,0.00,,,0.00,,2013-01-17 03:22:00,
2013-01-16 20:32:00,22.0,8.0,-100.00,NW,312,2.0,3.0,53,0.00,,,0.00,,2013-01-17 03:32:00,
2013-01-16 20:40:00,22.0,8.0,-100.00,WNW,299,2.0,4.0,55,0.00,,,0.00,,2013-01-17 03:40:00,
2013-01-16 21:02:00,22.0,8.0,-100.00,WNW,299,2.0,4.0,55,0.00,,,0.00,,2013-01-17 04:02:00,
2013-01-16 21:12:00,22.0,8.0,-100.00,WNW,299,2.0,4.0,55,0.00,,,0.00,,2013-01-17 04:12:00,
2013-01-16 21:22:00,22.0,8.0,-100.00,WNW,299,2.0,4.0,55,0.00,,,0.00,,2013-01-17 04:22:00,
2013-01-16 21:32:00,22.0,8.0,-100.00,WNW,299,2.0,4.0,55,0.00,,,0.00,,2013-01-17 04:32:00,
2013-01-16 21:40:00,20.0,8.0,-100.00,WNW,285,2.0,4.0,60,0.00,,,0.00,,2013-01-17 04:40:00,
2013-01-16 22:04:00,20.0,8.0,-100.00,WNW,285,2.0,4.0,60,0.00,,,0.00,,2013-01-17 05:04:00,
2013-01-16 22:12:00,20.0,8.0,-100.00,WNW,285,2.0,4.0,60,0.00,,,0.00,,2013-01-17 05:12:00,
2013-01-16 22:22:00,20.0,8.0,-100.00,WNW,285,2.0,4.0,60,0.00,,,0.00,,2013-01-17 05:22:00,
2013-01-16 22:33:00,20.0,8.0,-100.00,WNW,285,2.0,4.0,60,0.00,,,0.00,,2013-01-17 05:33:00,
2013-01-16 22:40:00,20.0,8.0,-100.00,NW,307,2.0,4.0,59,0.00,,,0.00,,2013-01-17 05:40:00,
2013-01-16 23:02:00,20.0,8.0,-100.00,NW,307,2.0,4.0,59,0.00,,,0.00,,2013-01-17 06:02:00,
2013-01-16 23:12:00,20.0,8.0,-100.00,NW,307,2.0,4.0,59,0.00,,,0.00,,2013-01-17 06:12:00,
2013-01-16 23:22:00,20.0,8.0,-100.00,NW,307,2.0,4.0,59,0.00,,,0.00,,2013-01-17 06:22:00,
2013-01-16 23:32:00,20.0,8.0,-100.00,NW,307,2.0,4.0,59,0.00,,,0.00,,2013-01-17 06:32:00,
2013-01-16 23:40:00,22.0,9.0,-100.00,NNW,341,5.0,9.0,57,0.00,,,0.00,,2013-01-17 06:40:00,